Location: Briis
(48.6240°N, 2.1211°E)
Time: 00:17:41
(UTC+00:00)

MSX - Pass Details

Date: 25 September 2020
Orbit: 895 x 906 km, 98.8° (Epoch: 23 October)

Event Time Altitude Azimuth Distance (km) Brightness Sun altitude
Rises 03:36:21 0° 13° (NNE) 3,543 7.5 -21.1°
Reaches altitude 10° 03:38:46 10° 13° (NNE) 2,597 6.7 -20.8°
Maximum altitude 03:44:33 78° 288° (WNW) 927 3.7 -19.9°
Enters shadow 03:48:21 22° 204° (SSW) 1,841 5.1 -19.3°
